Today

Time Wind Dr Wind Spd
mph
Wind Gust
mph
Hum In
%
Humid
%
TempI
F
Temp
F
Raw Bar
in
Tot Rain
in
UV Solar
W/sqm
DailyRain
in
HourRain
in
24HrRain
in
RainRate
in
05/23/19 12:01:28 AM 317 0.0 0.0 54 92 64.4 47.3 29.894 19.59 0.0 0 0.00 0.00 0.00 0.00
05/23/19 12:02:18 AM 317 0.0 0.0 54 92 64.4 47.3 29.894 19.59 0.0 0 0.00 0.00 0.00 0.00
05/23/19 12:03:31 AM 317 0.0 0.0 54 92 64.4 47.3 29.894 19.59 0.0 0 0.00 0.00 0.00 0.00
05/23/19 12:04:21 AM 317 0.0 0.0 54 92 64.4 47.3 29.894 19.59 0.0 0 0.00 0.00 0.00 0.00
05/23/19 12:05:31 AM 317 0.0 0.0 55 92 64.4 47.3 29.895 19.59 0.0 0 0.00 0.00 0.00 0.00
05/23/19 12:06:20 AM 317 0.0 0.0 55 92 64.4 47.3 29.895 19.59 0.0 0 0.00 0.00 0.00 0.00
05/23/19 12:07:34 AM 317 0.0 0.0 55 92 64.4 47.4 29.895 19.59 0.0 0 0.00 0.00 0.00 0.00
05/23/19 12:08:26 AM 317 0.0 0.0 55 92 64.4 47.4 29.895 19.59 0.0 0 0.00 0.00 0.00 0.00
05/23/19 12:09:18 AM 317 0.0 0.0 55 92 64.4 47.4 29.893 19.59 0.0 0 0.00 0.00 0.00 0.00
05/23/19 12:10:28 AM 317 0.0 0.0 55 92 64.4 47.4 29.898 19.59 0.0 0 0.00 0.00 0.00 0.00
05/23/19 12:11:17 AM 317 0.0 0.0 55 92 64.4 47.4 29.898 19.59 0.0 0 0.00 0.00 0.00 0.00
05/23/19 12:12:28 AM 317 0.0 0.0 55 92 64.4 47.4 29.895 19.59 0.0 0 0.00 0.00 0.00 0.00
05/23/19 12:13:20 AM 317 0.0 0.0 55 92 64.4 47.4 29.895 19.59 0.0 0 0.00 0.00 0.00 0.00
05/23/19 12:14:33 AM 317 0.0 0.0 55 92 64.5 47.4 29.898 19.59 0.0 0 0.00 0.00 0.00 0.00
05/23/19 12:15:26 AM 317 0.0 0.0 55 92 64.5 47.4 29.898 19.59 0.0 0 0.00 0.00 0.00 0.00
05/23/19 12:16:36 AM 317 0.0 0.0 55 92 64.5 47.5 29.898 19.59 0.0 0 0.00 0.00 0.00 0.00
05/23/19 12:17:28 AM 317 0.0 0.0 55 92 64.5 47.5 29.898 19.59 0.0 0 0.00 0.00 0.00 0.00
05/23/19 12:18:20 AM 317 0.0 0.0 55 92 64.5 47.5 29.898 19.59 0.0 0 0.00 0.00 0.00 0.00
05/23/19 12:19:31 AM 317 0.0 0.0 55 92 64.4 47.5 29.897 19.59 0.0 0 0.00 0.00 0.00 0.00
05/23/19 12:20:23 AM 317 0.0 0.0 55 92 64.4 47.5 29.897 19.59 0.0 0 0.00 0.00 0.00 0.00
05/23/19 12:21:18 AM 317 0.0 0.0 55 92 64.4 47.5 29.897 19.59 0.0 0 0.00 0.00 0.00 0.00
05/23/19 12:22:25 AM 317 0.0 0.0 55 92 64.4 47.5 29.898 19.59 0.0 0 0.00 0.00 0.00 0.00
05/23/19 12:23:17 AM 317 0.0 0.0 55 92 64.4 47.5 29.897 19.59 0.0 0 0.00 0.00 0.00 0.00
05/23/19 12:24:28 AM 317 0.0 0.0 55 92 64.4 47.6 29.898 19.59 0.0 0 0.00 0.00 0.00 0.00
05/23/19 12:25:23 AM 317 0.0 0.0 55 92 64.4 47.6 29.898 19.59 0.0 0 0.00 0.00 0.00 0.00
05/23/19 12:26:18 AM 317 0.0 0.0 55 92 64.4 47.6 29.898 19.59 0.0 0 0.00 0.00 0.00 0.00
05/23/19 12:27:25 AM 317 0.0 0.0 55 92 64.4 47.6 29.898 19.59 0.0 0 0.00 0.00 0.00 0.00
05/23/19 12:28:18 AM 317 0.0 0.0 55 92 64.4 47.6 29.899 19.59 0.0 0 0.00 0.00 0.00 0.00
05/23/19 12:29:28 AM 315 0.0 0.0 55 92 64.4 47.7 29.898 19.59 0.0 0 0.00 0.00 0.00 0.00
05/23/19 12:30:20 AM 315 0.0 0.0 55 92 64.4 47.7 29.898 19.59 0.0 0 0.00 0.00 0.00 0.00
05/23/19 12:31:34 AM 315 0.0 0.0 55 92 64.4 47.7 29.898 19.59 0.0 0 0.00 0.00 0.00 0.00
05/23/19 12:32:20 AM 315 0.0 0.0 55 92 64.4 47.7 29.898 19.59 0.0 0 0.00 0.00 0.00 0.00
05/23/19 12:33:33 AM 315 0.0 0.0 55 92 64.5 47.8 29.898 19.59 0.0 0 0.00 0.00 0.00 0.00
05/23/19 12:34:22 AM 315 0.0 0.0 55 92 64.5 47.8 29.898 19.59 0.0 0 0.00 0.00 0.00 0.00
05/23/19 12:35:36 AM 315 0.0 0.0 55 93 64.5 47.8 29.897 19.59 0.0 0 0.00 0.00 0.00 0.00
05/23/19 12:36:27 AM 315 0.0 0.0 55 93 64.5 47.9 29.898 19.59 0.0 0 0.00 0.00 0.00 0.00
05/23/19 12:37:17 AM 315 0.0 0.0 55 93 64.5 47.9 29.898 19.59 0.0 0 0.00 0.00 0.00 0.00
05/23/19 12:38:26 AM 315 0.0 0.0 55 93 64.5 47.9 29.900 19.59 0.0 0 0.00 0.00 0.00 0.00
05/23/19 12:39:16 AM 315 0.0 0.0 55 93 64.5 47.9 29.897 19.59 0.0 0 0.00 0.00 0.00 0.00
05/23/19 12:40:28 AM 316 0.0 0.0 55 93 64.5 47.9 29.897 19.59 0.0 0 0.00 0.00 0.00 0.00
05/23/19 12:41:22 AM 316 0.0 0.0 55 93 64.5 48.0 29.897 19.59 0.0 0 0.00 0.00 0.00 0.00
05/23/19 12:42:31 AM 316 0.0 0.0 55 93 64.5 48.0 29.896 19.59 0.0 0 0.00 0.00 0.00 0.00
05/23/19 12:43:18 AM 316 0.0 0.0 55 93 64.5 48.1 29.896 19.59 0.0 0 0.00 0.00 0.00 0.00
05/23/19 12:44:30 AM 316 0.0 0.0 55 93 64.5 48.1 29.896 19.59 0.0 0 0.00 0.00 0.00 0.00
05/23/19 12:45:24 AM 316 0.0 0.0 55 93 64.5 48.2 29.896 19.59 0.0 0 0.00 0.00 0.00 0.00
05/23/19 12:46:36 AM 316 0.0 0.0 55 93 64.5 48.2 29.898 19.59 0.0 0 0.00 0.00 0.00 0.00
05/23/19 12:47:29 AM 316 0.0 0.0 55 93 64.5 48.2 29.896 19.59 0.0 0 0.00 0.00 0.00 0.00
05/23/19 12:48:35 AM 316 0.0 0.0 55 93 64.5 48.2 29.899 19.59 0.0 0 0.00 0.00 0.00 0.00
05/23/19 12:49:29 AM 316 0.0 0.0 55 93 64.5 48.3 29.897 19.59 0.0 0 0.00 0.00 0.00 0.00
05/23/19 12:50:22 AM 316 0.0 0.0 55 93 64.5 48.3 29.897 19.59 0.0 0 0.00 0.00 0.00 0.00
05/23/19 12:51:34 AM 316 0.0 0.0 55 93 64.5 48.3 29.899 19.59 0.0 0 0.00 0.00 0.00 0.00
05/23/19 12:52:25 AM 316 0.0 0.0 55 93 64.5 48.3 29.899 19.59 0.0 0 0.00 0.00 0.00 0.00
05/23/19 12:53:19 AM 316 0.0 0.0 55 93 64.5 48.3 29.898 19.59 0.0 0 0.00 0.00 0.00 0.00
05/23/19 12:54:27 AM 316 0.0 0.0 55 93 64.5 48.4 29.899 19.59 0.0 0 0.00 0.00 0.00 0.00
05/23/19 12:55:21 AM 316 0.0 0.0 55 93 64.5 48.4 29.899 19.59 0.0 0 0.00 0.00 0.00 0.00
05/23/19 12:56:33 AM 316 0.0 0.0 56 92 64.5 48.4 29.899 19.59 0.0 0 0.00 0.00 0.00 0.00
05/23/19 12:57:26 AM 316 0.0 0.0 56 92 64.5 48.4 29.899 19.59 0.0 0 0.00 0.00 0.00 0.00
05/23/19 12:58:17 AM 316 0.0 0.0 56 92 64.5 48.4 29.897 19.59 0.0 0 0.00 0.00 0.00 0.00
05/23/19 12:59:26 AM 316 0.0 0.0 56 92 64.5 48.4 29.900 19.59 0.0 0 0.00 0.00 0.00 0.00
05/23/19 1:00:17 AM 316 0.0 0.0 56 92 64.5 48.4 29.900 19.59 0.0 0 0.00 0.00 0.00 0.00
05/23/19 1:01:29 AM 316 0.0 0.0 56 92 64.5 48.4 29.899 19.59 0.0 0 0.00 0.00 0.00 0.00
05/23/19 1:02:19 AM 316 0.0 0.0 56 92 64.5 48.4 29.899 19.59 0.0 0 0.00 0.00 0.00 0.00
05/23/19 1:03:31 AM 316 0.0 0.0 56 92 64.5 48.4 29.899 19.59 0.0 0 0.00 0.00 0.00 0.00
05/23/19 1:04:19 AM 316 0.0 0.0 56 92 64.5 48.4 29.899 19.59 0.0 0 0.00 0.00 0.00 0.00
05/23/19 1:05:31 AM 316 0.0 0.0 56 92 64.5 48.4 29.896 19.59 0.0 0 0.00 0.00 0.00 0.00
05/23/19 1:06:22 AM 316 0.0 0.0 56 92 64.5 48.4 29.896 19.59 0.0 0 0.00 0.00 0.00 0.00
05/23/19 1:07:33 AM 316 0.0 0.0 56 93 64.5 48.5 29.895 19.59 0.0 0 0.00 0.00 0.00 0.00
05/23/19 1:08:27 AM 316 0.0 0.0 56 93 64.5 48.5 29.895 19.59 0.0 0 0.00 0.00 0.00 0.00
05/23/19 1:09:18 AM 316 0.0 0.0 56 93 64.5 48.5 29.895 19.59 0.0 0 0.00 0.00 0.00 0.00
05/23/19 1:10:24 AM 316 0.0 0.0 56 93 64.5 48.5 29.893 19.59 0.0 0 0.00 0.00 0.00 0.00
05/23/19 1:11:17 AM 316 0.0 0.0 56 93 64.5 48.5 29.891 19.59 0.0 0 0.00 0.00 0.00 0.00
05/23/19 1:12:29 AM 316 0.0 0.0 56 93 64.5 48.5 29.889 19.59 0.0 0 0.00 0.00 0.00 0.00
05/23/19 1:13:20 AM 61 2.0 3.0 56 93 64.5 48.6 29.889 19.59 0.0 0 0.00 0.00 0.00 0.00
05/23/19 1:14:32 AM 71 3.0 5.0 56 93 64.5 48.6 29.889 19.59 0.0 0 0.00 0.00 0.00 0.00
05/23/19 1:15:20 AM 71 3.0 5.0 56 93 64.5 48.6 29.889 19.59 0.0 0 0.00 0.00 0.00 0.00
05/23/19 1:16:32 AM 71 4.0 5.0 56 93 64.5 48.7 29.887 19.59 0.0 0 0.00 0.00 0.00 0.00
05/23/19 1:17:23 AM 71 4.0 5.0 56 93 64.5 48.7 29.887 19.59 0.0 0 0.00 0.00 0.00 0.00
05/23/19 1:18:16 AM 75 5.0 5.0 56 93 64.5 48.7 29.886 19.59 0.0 0 0.00 0.00 0.00 0.00
05/23/19 1:19:28 AM 74 4.0 6.0 56 93 64.5 48.7 29.884 19.59 0.0 0 0.00 0.00 0.00 0.00
05/23/19 1:20:16 AM 86 5.0 7.0 56 93 64.5 48.7 29.884 19.59 0.0 0 0.00 0.00 0.00 0.00
05/23/19 1:21:31 AM 84 5.0 7.0 56 93 64.5 48.8 29.881 19.59 0.0 0 0.00 0.00 0.00 0.00
05/23/19 1:22:21 AM 70 4.0 7.0 56 93 64.5 48.8 29.881 19.59 0.0 0 0.00 0.00 0.00 0.00
05/23/19 1:23:36 AM 71 4.0 7.0 56 92 64.6 48.8 29.880 19.59 0.0 0 0.00 0.00 0.00 0.00
05/23/19 1:24:30 AM 74 4.0 7.0 56 92 64.5 48.8 29.881 19.59 0.0 0 0.00 0.00 0.00 0.00
05/23/19 1:25:24 AM 76 3.0 7.0 56 92 64.5 48.8 29.881 19.59 0.0 0 0.00 0.00 0.00 0.00
05/23/19 1:26:30 AM 80 4.0 7.0 56 92 64.5 48.9 29.879 19.59 0.0 0 0.00 0.00 0.00 0.00
05/23/19 1:27:20 AM 87 3.0 7.0 56 92 64.5 48.9 29.879 19.59 0.0 0 0.00 0.00 0.00 0.00
05/23/19 1:28:32 AM 79 3.0 7.0 56 92 64.5 48.9 29.881 19.59 0.0 0 0.00 0.00 0.00 0.00
05/23/19 1:29:23 AM 95 4.0 7.0 56 92 64.5 48.9 29.881 19.59 0.0 0 0.00 0.00 0.00 0.00
05/23/19 1:30:17 AM 95 3.0 7.0 56 92 64.5 48.9 29.881 19.59 0.0 0 0.00 0.00 0.00 0.00
05/23/19 1:31:25 AM 95 2.0 7.0 56 92 64.6 49.0 29.882 19.59 0.0 0 0.00 0.00 0.00 0.00
05/23/19 1:32:19 AM 95 3.0 7.0 56 92 64.6 49.0 29.879 19.59 0.0 0 0.00 0.00 0.00 0.00
05/23/19 1:33:28 AM 95 1.0 7.0 56 92 64.6 49.0 29.880 19.59 0.0 0 0.00 0.00 0.00 0.00
05/23/19 1:34:22 AM 95 1.0 7.0 56 92 64.6 49.0 29.880 19.59 0.0 0 0.00 0.00 0.00 0.00
05/23/19 1:35:34 AM 95 2.0 7.0 56 92 64.6 49.1 29.881 19.59 0.0 0 0.00 0.00 0.00 0.00
05/23/19 1:36:21 AM 95 3.0 7.0 56 92 64.6 49.1 29.881 19.59 0.0 0 0.00 0.00 0.00 0.00
05/23/19 1:37:33 AM 95 3.0 7.0 56 92 64.6 49.1 29.877 19.59 0.0 0 0.00 0.00 0.00 0.00
05/23/19 1:38:24 AM 95 2.0 7.0 56 92 64.6 49.1 29.877 19.59 0.0 0 0.00 0.00 0.00 0.00
05/23/19 1:39:36 AM 95 1.0 7.0 56 92 64.6 49.1 29.880 19.59 0.0 0 0.00 0.00 0.00 0.00
05/23/19 1:40:26 AM 95 1.0 7.0 56 92 64.6 49.1 29.877 19.59 0.0 0 0.00 0.00 0.00 0.00
05/23/19 1:41:20 AM 95 3.0 7.0 56 92 64.6 49.2 29.877 19.59 0.0 0 0.00 0.00 0.00 0.00
05/23/19 1:42:29 AM 95 3.0 7.0 56 92 64.6 49.2 29.881 19.59 0.0 0 0.00 0.00 0.00 0.00
05/23/19 1:43:19 AM 98 1.0 7.0 56 92 64.6 49.2 29.881 19.59 0.0 0 0.00 0.00 0.00 0.00
05/23/19 1:44:31 AM 98 1.0 7.0 56 92 64.7 49.2 29.880 19.59 0.0 0 0.00 0.00 0.00 0.00
05/23/19 1:45:25 AM 117 1.0 7.0 56 92 64.7 49.2 29.880 19.59 0.0 0 0.00 0.00 0.00 0.00
05/23/19 1:46:34 AM 117 1.0 7.0 56 91 64.7 49.2 29.885 19.59 0.0 0 0.00 0.00 0.00 0.00
05/23/19 1:47:22 AM 117 3.0 7.0 56 91 64.7 49.2 29.885 19.59 0.0 0 0.00 0.00 0.00 0.00
05/23/19 1:48:34 AM 202 4.0 7.0 56 91 64.7 49.2 29.884 19.59 0.0 0 0.00 0.00 0.00 0.00
05/23/19 1:49:28 AM 202 3.0 7.0 56 91 64.7 49.2 29.884 19.59 0.0 0 0.00 0.00 0.00 0.00
05/23/19 1:50:18 AM 202 2.0 7.0 56 91 64.7 49.3 29.882 19.59 0.0 0 0.00 0.00 0.00 0.00
05/23/19 1:51:30 AM 202 0.0 7.0 56 91 64.7 49.3 29.888 19.59 0.0 0 0.00 0.00 0.00 0.00
05/23/19 1:52:18 AM 202 0.0 7.0 56 91 64.7 49.3 29.888 19.59 0.0 0 0.00 0.00 0.00 0.00
05/23/19 1:53:30 AM 202 0.0 7.0 56 91 64.7 49.3 29.889 19.59 0.0 0 0.00 0.00 0.00 0.00
05/23/19 1:54:23 AM 202 0.0 7.0 56 91 64.7 49.3 29.889 19.59 0.0 0 0.00 0.00 0.00 0.00
05/23/19 1:55:35 AM 202 0.0 7.0 56 91 64.7 49.3 29.890 19.59 0.0 0 0.00 0.00 0.00 0.00
05/23/19 1:56:29 AM 202 0.0 7.0 56 91 64.7 49.3 29.887 19.59 0.0 0 0.00 0.00 0.00 0.00
05/23/19 1:57:20 AM 202 0.0 7.0 56 91 64.7 49.3 29.887 19.59 0.0 0 0.00 0.00 0.00 0.00
05/23/19 1:58:29 AM 202 0.0 7.0 56 91 64.7 49.3 29.891 19.59 0.0 0 0.00 0.00 0.00 0.00
05/23/19 1:59:23 AM 202 0.0 7.0 56 91 64.7 49.4 29.891 19.59 0.0 0 0.00 0.00 0.00 0.00
05/23/19 2:00:16 AM 202 0.0 7.0 56 91 64.7 49.4 29.890 19.59 0.0 0 0.00 0.00 0.00 0.00
05/23/19 2:01:28 AM 202 0.0 7.0 56 91 64.7 49.4 29.894 19.59 0.0 0 0.00 0.00 0.00 0.00
05/23/19 2:02:19 AM 202 0.0 7.0 56 91 64.7 49.4 29.894 19.59 0.0 0 0.00 0.00 0.00 0.00
05/23/19 2:03:28 AM 202 0.0 7.0 56 91 64.7 49.4 29.901 19.59 0.0 0 0.00 0.00 0.00 0.00
05/23/19 2:04:18 AM 202 0.0 7.0 56 91 64.7 49.4 29.901 19.59 0.0 0 0.00 0.00 0.00 0.00
05/23/19 2:05:33 AM 237 0.0 7.0 56 91 64.7 49.4 29.894 19.59 0.0 0 0.00 0.00 0.00 0.00
05/23/19 2:06:27 AM 237 3.0 7.0 56 91 64.7 49.4 29.894 19.59 0.0 0 0.00 0.00 0.00 0.00
05/23/19 2:07:18 AM 237 2.0 7.0 56 91 64.7 49.4 29.894 19.59 0.0 0 0.00 0.00 0.00 0.00
05/23/19 2:08:27 AM 237 1.0 7.0 56 91 64.7 49.4 29.894 19.59 0.0 0 0.00 0.00 0.00 0.00
05/23/19 2:09:18 AM 237 3.0 7.0 56 91 64.7 49.4 29.895 19.59 0.0 0 0.00 0.00 0.00 0.00
05/23/19 2:10:29 AM 237 3.0 7.0 56 91 64.7 49.4 29.894 19.59 0.0 0 0.00 0.00 0.00 0.00
05/23/19 2:11:20 AM 238 3.0 7.0 56 91 64.7 49.4 29.894 19.59 0.0 0 0.00 0.00 0.00 0.00
05/23/19 2:12:32 AM 238 2.0 7.0 56 91 64.7 49.4 29.894 19.59 0.0 0 0.00 0.00 0.00 0.00
05/23/19 2:13:23 AM 238 2.0 7.0 56 91 64.7 49.4 29.894 19.59 0.0 0 0.00 0.00 0.00 0.00
05/23/19 2:14:32 AM 238 2.0 7.0 56 91 64.7 49.4 29.894 19.59 0.0 0 0.00 0.00 0.00 0.00
05/23/19 2:15:23 AM 238 2.0 7.0 56 91 64.7 49.4 29.894 19.59 0.0 0 0.00 0.00 0.00 0.00
05/23/19 2:16:35 AM 238 1.0 7.0 56 91 64.6 49.4 29.897 19.59 0.0 0 0.00 0.00 0.00 0.00
05/23/19 2:17:25 AM 238 1.0 7.0 56 91 64.6 49.4 29.897 19.59 0.0 0 0.00 0.00 0.00 0.00
05/23/19 2:18:19 AM 238 0.0 7.0 56 91 64.6 49.4 29.896 19.59 0.0 0 0.00 0.00 0.00 0.00
05/23/19 2:19:25 AM 238 0.0 7.0 56 91 64.6 49.4 29.896 19.59 0.0 0 0.00 0.00 0.00 0.00
05/23/19 2:20:19 AM 238 0.0 7.0 56 91 64.6 49.4 29.898 19.59 0.0 0 0.00 0.00 0.00 0.00
05/23/19 2:21:31 AM 236 0.0 7.0 56 91 64.6 49.3 29.898 19.59 0.0 0 0.00 0.00 0.00 0.00
05/23/19 2:22:22 AM 236 0.0 7.0 56 91 64.6 49.3 29.898 19.59 0.0 0 0.00 0.00 0.00 0.00
05/23/19 2:23:34 AM 236 0.0 7.0 56 91 64.6 49.3 29.900 19.59 0.0 0 0.00 0.00 0.00 0.00
05/23/19 2:24:21 AM 236 0.0 7.0 56 91 64.6 49.3 29.900 19.59 0.0 0 0.00 0.00 0.00 0.00
05/23/19 2:25:36 AM 236 0.0 7.0 56 91 64.5 49.3 29.900 19.59 0.0 0 0.00 0.00 0.00 0.00
05/23/19 2:26:27 AM 236 0.0 7.0 56 91 64.6 49.2 29.897 19.59 0.0 0 0.00 0.00 0.00 0.00
05/23/19 2:27:21 AM 19 0.0 7.0 56 91 64.6 49.2 29.897 19.59 0.0 0 0.00 0.00 0.00 0.00
05/23/19 2:28:33 AM 57 3.0 7.0 56 91 64.5 49.2 29.900 19.59 0.0 0 0.00 0.00 0.00 0.00
05/23/19 2:29:24 AM 57 2.0 7.0 56 91 64.5 49.2 29.900 19.59 0.0 0 0.00 0.00 0.00 0.00
05/23/19 2:30:33 AM 55 4.0 7.0 56 91 64.6 49.2 29.903 19.59 0.0 0 0.00 0.00 0.00 0.00
05/23/19 2:31:24 AM 42 2.0 7.0 56 91 64.6 49.2 29.903 19.59 0.0 0 0.00 0.00 0.00 0.00
05/23/19 2:32:36 AM 63 5.0 7.0 56 90 64.6 49.2 29.901 19.59 0.0 0 0.00 0.00 0.00 0.00
05/23/19 2:33:27 AM 73 3.0 7.0 56 90 64.6 49.2 29.901 19.59 0.0 0 0.00 0.00 0.00 0.00
05/23/19 2:34:18 AM 67 5.0 7.0 56 90 64.6 49.2 29.900 19.59 0.0 0 0.00 0.00 0.00 0.00
05/23/19 2:35:29 AM 67 4.0 7.0 56 90 64.6 49.3 29.900 19.59 0.0 0 0.00 0.00 0.00 0.00
05/23/19 2:36:20 AM 57 3.0 7.0 56 90 64.6 49.3 29.900 19.59 0.0 0 0.00 0.00 0.00 0.00
05/23/19 2:37:32 AM 54 3.0 7.0 56 89 64.6 49.3 29.900 19.59 0.0 0 0.00 0.00 0.00 0.00
05/23/19 2:38:23 AM 56 3.0 7.0 56 89 64.6 49.3 29.900 19.59 0.0 0 0.00 0.00 0.00 0.00
05/23/19 2:39:17 AM 78 4.0 7.0 56 89 64.6 49.4 29.903 19.59 0.0 0 0.00 0.00 0.00 0.00
05/23/19 2:40:25 AM 62 4.0 7.0 56 89 64.6 49.4 29.898 19.59 0.0 0 0.00 0.00 0.00 0.00
05/23/19 2:41:38 AM 73 4.0 7.0 56 89 64.6 49.4 29.899 19.59 0.0 0 0.00 0.00 0.00 0.00
05/23/19 2:42:28 AM 72 6.0 8.0 56 88 64.6 49.5 29.898 19.59 0.0 0 0.00 0.00 0.00 0.00
05/23/19 2:43:22 AM 74 4.0 8.0 56 88 64.6 49.5 29.898 19.59 0.0 0 0.00 0.00 0.00 0.00
05/23/19 2:44:34 AM 71 6.0 8.0 56 88 64.6 49.6 29.894 19.59 0.0 0 0.00 0.00 0.00 0.00
05/23/19 2:45:25 AM 76 4.0 8.0 56 88 64.6 49.6 29.894 19.59 0.0 0 0.00 0.00 0.00 0.00
05/23/19 2:46:30 AM 86 3.0 8.0 56 87 64.6 49.7 29.895 19.59 0.0 0 0.00 0.00 0.00 0.00
05/23/19 2:47:24 AM 86 3.0 8.0 56 87 64.6 49.7 29.895 19.59 0.0 0 0.00 0.00 0.00 0.00
05/23/19 2:48:36 AM 86 2.0 8.0 56 87 64.6 49.8 29.893 19.59 0.0 0 0.00 0.00 0.00 0.00
05/23/19 2:49:27 AM 86 2.0 8.0 56 87 64.6 49.8 29.893 19.59 0.0 0 0.00 0.00 0.00 0.00
05/23/19 2:50:17 AM 86 2.0 8.0 56 87 64.7 49.8 29.895 19.59 0.0 0 0.00 0.00 0.00 0.00
05/23/19 2:51:26 AM 86 3.0 8.0 56 87 64.7 49.9 29.895 19.59 0.0 0 0.00 0.00 0.00 0.00
05/23/19 2:52:17 AM 85 3.0 8.0 56 87 64.7 49.9 29.894 19.59 0.0 0 0.00 0.00 0.00 0.00
05/23/19 2:53:29 AM 81 3.0 8.0 56 87 64.7 49.9 29.894 19.59 0.0 0 0.00 0.00 0.00 0.00
05/23/19 2:54:23 AM 53 5.0 8.0 56 87 64.7 49.9 29.894 19.59 0.0 0 0.00 0.00 0.00 0.00
05/23/19 2:55:35 AM 51 4.0 8.0 56 87 64.7 49.9 29.894 19.59 0.0 0 0.00 0.00 0.00 0.00
05/23/19 2:56:23 AM 58 6.0 8.0 56 87 64.7 49.9 29.894 19.59 0.0 0 0.00 0.00 0.00 0.00
05/23/19 2:57:35 AM 67 4.0 8.0 56 86 64.7 49.9 29.894 19.59 0.0 0 0.00 0.00 0.00 0.00
05/23/19 2:58:29 AM 61 4.0 8.0 56 86 64.7 49.9 29.894 19.59 0.0 0 0.00 0.00 0.00 0.00
05/23/19 2:59:19 AM 60 4.0 8.0 56 86 64.7 49.9 29.894 19.59 0.0 0 0.00 0.00 0.00 0.00
05/23/19 3:00:31 AM 74 5.0 8.0 56 86 64.8 49.9 29.894 19.59 0.0 0 0.00 0.00 0.00 0.00
05/23/19 3:01:25 AM 86 5.0 8.0 56 86 64.8 49.9 29.894 19.59 0.0 0 0.00 0.00 0.00 0.00
05/23/19 3:02:34 AM 88 4.0 9.0 56 86 64.8 49.9 29.892 19.59 0.0 0 0.00 0.00 0.00 0.00
05/23/19 3:03:28 AM 88 4.0 9.0 56 85 64.8 50.0 29.896 19.59 0.0 0 0.00 0.00 0.00 0.00
05/23/19 3:04:19 AM 98 3.0 9.0 56 85 64.8 50.0 29.896 19.59 0.0 0 0.00 0.00 0.00 0.00
05/23/19 3:05:31 AM 99 2.0 9.0 56 85 64.8 50.1 29.895 19.59 0.0 0 0.00 0.00 0.00 0.00
05/23/19 3:06:25 AM 99 2.0 9.0 56 85 64.8 50.1 29.895 19.59 0.0 0 0.00 0.00 0.00 0.00
05/23/19 3:07:34 AM 99 1.0 9.0 56 85 64.9 50.1 29.895 19.59 0.0 0 0.00 0.00 0.00 0.00
05/23/19 3:08:25 AM 99 2.0 9.0 56 85 64.9 50.1 29.895 19.59 0.0 0 0.00 0.00 0.00 0.00
05/23/19 3:09:18 AM 99 2.0 9.0 56 85 64.9 50.1 29.895 19.59 0.0 0 0.00 0.00 0.00 0.00
05/23/19 3:10:30 AM 99 2.0 9.0 56 85 64.9 50.1 29.897 19.59 0.0 0 0.00 0.00 0.00 0.00
05/23/19 3:11:21 AM 99 1.0 9.0 56 85 64.9 50.1 29.897 19.59 0.0 0 0.00 0.00 0.00 0.00
05/23/19 3:12:30 AM 99 0.0 9.0 56 85 65.0 50.1 29.896 19.59 0.0 0 0.00 0.00 0.00 0.00
05/23/19 3:13:21 AM 99 2.0 9.0 56 85 65.0 50.1 29.896 19.59 0.0 0 0.00 0.00 0.00 0.00
05/23/19 3:14:33 AM 99 1.0 9.0 56 85 65.1 50.1 29.896 19.59 0.0 0 0.00 0.00 0.00 0.00
05/23/19 3:15:24 AM 99 0.0 9.0 56 85 65.1 50.1 29.896 19.59 0.0 0 0.00 0.00 0.00 0.00
05/23/19 3:16:36 AM 98 0.0 9.0 56 85 65.2 50.1 29.897 19.59 0.0 0 0.00 0.00 0.00 0.00
05/23/19 3:17:26 AM 99 0.0 9.0 56 85 65.2 50.2 29.897 19.59 0.0 0 0.00 0.00 0.00 0.00
05/23/19 3:18:36 AM 99 0.0 9.0 56 85 65.2 50.2 29.899 19.59 0.0 0 0.00 0.00 0.00 0.00
05/23/19 3:19:29 AM 99 0.0 9.0 56 85 65.3 50.2 29.897 19.59 0.0 0 0.00 0.00 0.00 0.00
05/23/19 3:20:20 AM 99 0.0 9.0 56 85 65.3 50.2 29.897 19.59 0.0 0 0.00 0.00 0.00 0.00
05/23/19 3:21:32 AM 99 0.0 9.0 56 85 65.3 50.2 29.903 19.59 0.0 0 0.00 0.00 0.00 0.00
05/23/19 3:22:23 AM 99 1.0 9.0 56 85 65.3 50.2 29.903 19.59 0.0 0 0.00 0.00 0.00 0.00
05/23/19 3:23:32 AM 99 0.0 9.0 56 85 65.4 50.2 29.900 19.59 0.0 0 0.00 0.00 0.00 0.00
05/23/19 3:24:22 AM 99 0.0 9.0 56 85 65.4 50.2 29.900 19.59 0.0 0 0.00 0.00 0.00 0.00
05/23/19 3:25:34 AM 99 0.0 9.0 56 86 65.4 50.2 29.905 19.59 0.0 0 0.00 0.00 0.00 0.00
05/23/19 3:26:25 AM 99 0.0 9.0 56 86 65.4 50.2 29.905 19.59 0.0 0 0.00 0.00 0.00 0.00
05/23/19 3:27:19 AM 99 0.0 9.0 56 86 65.4 50.2 29.905 19.59 0.0 0 0.00 0.00 0.00 0.00
05/23/19 3:28:25 AM 99 0.0 9.0 56 86 65.4 50.2 29.905 19.59 0.0 0 0.00 0.00 0.00 0.00
05/23/19 3:29:19 AM 99 0.0 9.0 56 86 65.5 50.2 29.906 19.59 0.0 0 0.00 0.00 0.00 0.00
05/23/19 3:30:31 AM 99 0.0 9.0 56 86 65.5 50.2 29.905 19.59 0.0 0 0.00 0.00 0.00 0.00
05/23/19 3:31:25 AM 99 0.0 9.0 56 86 65.5 50.2 29.905 19.59 0.0 0 0.00 0.00 0.00 0.00
05/23/19 3:32:16 AM 99 0.0 9.0 56 86 65.5 50.2 29.904 19.59 0.0 0 0.00 0.00 0.00 0.00
05/23/19 3:33:28 AM 99 0.0 9.0 56 86 65.6 50.2 29.904 19.59 0.0 0 0.00 0.00 0.00 0.00
05/23/19 3:34:15 AM 99 0.0 9.0 56 86 65.6 50.2 29.904 19.59 0.0 0 0.00 0.00 0.00 0.00
05/23/19 3:35:31 AM 99 0.0 9.0 56 86 65.6 50.2 29.903 19.59 0.0 0 0.00 0.00 0.00 0.00
05/23/19 3:36:21 AM 99 0.0 9.0 56 86 65.6 50.2 29.903 19.59 0.0 0 0.00 0.00 0.00 0.00
05/23/19 3:37:15 AM 99 0.0 9.0 56 86 65.6 50.2 29.905 19.59 0.0 0 0.00 0.00 0.00 0.00
05/23/19 3:38:31 AM 98 0.0 9.0 56 86 65.7 50.2 29.907 19.59 0.0 0 0.00 0.00 0.00 0.00
05/23/19 3:39:18 AM 99 0.0 9.0 56 86 65.7 50.2 29.907 19.59 0.0 0 0.00 0.00 0.00 0.00
05/23/19 3:40:31 AM 99 0.0 9.0 56 86 65.7 50.2 29.907 19.59 0.0 0 0.00 0.00 0.00 0.00
05/23/19 3:41:21 AM 99 0.0 9.0 56 86 65.7 50.2 29.907 19.59 0.0 0 0.00 0.00 0.00 0.00
05/23/19 3:42:33 AM 99 0.0 9.0 56 86 65.7 50.2 29.907 19.59 0.0 0 0.00 0.00 0.00 0.00
05/23/19 3:43:24 AM 99 0.0 9.0 56 86 65.7 50.2 29.907 19.59 0.0 0 0.00 0.00 0.00 0.00
05/23/19 3:44:18 AM 99 0.0 9.0 56 86 65.6 50.2 29.909 19.59 0.0 0 0.00 0.00 0.00 0.00
05/23/19 3:45:27 AM 99 0.0 9.0 56 86 65.6 50.2 29.907 19.59 0.0 0 0.00 0.00 0.00 0.00
05/23/19 3:46:18 AM 99 0.0 9.0 56 86 65.6 50.2 29.910 19.59 0.0 0 0.00 0.00 0.00 0.00
05/23/19 3:47:30 AM 99 0.0 9.0 56 86 65.5 50.2 29.906 19.59 0.0 0 0.00 0.00 0.00 0.00
05/23/19 3:48:24 AM 99 0.0 9.0 56 86 65.5 50.2 29.906 19.59 0.0 0 0.00 0.00 0.00 0.00
05/23/19 3:49:33 AM 99 0.0 9.0 56 86 65.5 50.2 29.905 19.59 0.0 0 0.00 0.00 0.00 0.00
05/23/19 3:50:21 AM 99 0.0 9.0 56 86 65.5 50.2 29.905 19.59 0.0 0 0.00 0.00 0.00 0.00
05/23/19 3:51:33 AM 99 0.0 9.0 56 86 65.4 50.2 29.906 19.59 0.0 0 0.00 0.00 0.00 0.00
05/23/19 3:52:24 AM 99 0.0 9.0 56 86 65.4 50.2 29.906 19.59 0.0 0 0.00 0.00 0.00 0.00
05/23/19 3:53:36 AM 98 0.0 9.0 56 87 65.4 50.1 29.906 19.59 0.0 0 0.00 0.00 0.00 0.00
05/23/19 3:54:27 AM 99 0.0 9.0 56 87 65.3 50.1 29.907 19.59 0.0 0 0.00 0.00 0.00 0.00
05/23/19 3:55:36 AM 99 0.0 9.0 56 87 65.3 50.2 29.905 19.59 0.0 0 0.00 0.00 0.00 0.00
05/23/19 3:56:27 AM 98 0.0 9.0 56 87 65.3 50.1 29.905 19.59 0.0 0 0.00 0.00 0.00 0.00
05/23/19 3:57:21 AM 99 0.0 9.0 56 87 65.3 50.1 29.906 19.59 0.0 0 0.00 0.00 0.00 0.00
05/23/19 3:58:33 AM 98 0.0 9.0 56 87 65.3 50.1 29.906 19.59 0.0 0 0.00 0.00 0.00 0.00
05/23/19 3:59:23 AM 98 0.0 9.0 56 87 65.3 50.1 29.906 19.59 0.0 0 0.00 0.00 0.00 0.00
05/23/19 4:00:17 AM 98 0.0 9.0 56 87 65.2 50.1 29.910 19.59 0.0 0 0.00 0.00 0.00 0.00
05/23/19 4:01:23 AM 96 0.0 9.0 56 87 65.2 50.1 29.911 19.59 0.0 0 0.00 0.00 0.00 0.00
05/23/19 4:02:17 AM 96 0.0 9.0 56 87 65.2 50.0 29.909 19.59 0.0 0 0.00 0.00 0.00 0.00
05/23/19 4:03:29 AM 96 1.0 9.0 56 87 65.2 50.0 29.909 19.59 0.0 0 0.00 0.00 0.00 0.00
05/23/19 4:04:23 AM 94 3.0 9.0 56 87 65.2 50.0 29.909 19.59 0.0 0 0.00 0.00 0.00 0.00
05/23/19 4:05:35 AM 94 2.0 9.0 56 87 65.2 50.0 29.905 19.59 0.0 0 0.00 0.00 0.00 0.00
05/23/19 4:06:23 AM 94 1.0 9.0 56 86 65.2 50.0 29.905 19.59 0.0 0 0.00 0.00 0.00 0.00
05/23/19 4:07:35 AM 94 1.0 9.0 56 86 65.1 49.9 29.905 19.59 0.0 0 0.00 0.00 0.00 0.00
05/23/19 4:08:26 AM 94 2.0 9.0 56 86 65.1 49.9 29.905 19.59 0.0 0 0.00 0.00 0.00 0.00
05/23/19 4:09:17 AM 94 0.0 9.0 56 87 65.1 49.9 29.904 19.59 0.0 0 0.00 0.00 0.00 0.00
05/23/19 4:10:29 AM 94 0.0 9.0 56 87 65.0 49.9 29.907 19.59 0.0 0 0.00 0.00 0.00 0.00
05/23/19 4:11:17 AM 94 0.0 9.0 56 87 65.0 49.9 29.907 19.59 0.0 0 0.00 0.00 0.00 0.00
05/23/19 4:12:29 AM 94 0.0 9.0 56 87 65.0 50.0 29.907 19.59 0.0 0 0.00 0.00 0.00 0.00
05/23/19 4:13:20 AM 94 0.0 9.0 56 87 65.0 50.0 29.907 19.59 0.0 0 0.00 0.00 0.00 0.00
05/23/19 4:14:32 AM 94 0.0 9.0 56 87 65.0 49.9 29.908 19.59 0.0 0 0.00 0.00 0.00 0.00
05/23/19 4:15:26 AM 94 0.0 9.0 56 87 65.0 49.9 29.908 19.59 0.0 0 0.00 0.00 0.00 0.00
05/23/19 4:16:32 AM 94 0.0 9.0 56 87 65.0 50.0 29.910 19.59 0.0 0 0.00 0.00 0.00 0.00
05/23/19 4:17:23 AM 94 0.0 9.0 56 87 65.0 50.0 29.910 19.59 0.0 0 0.00 0.00 0.00 0.00
05/23/19 4:18:35 AM 94 0.0 9.0 56 87 65.0 49.9 29.910 19.59 0.0 0 0.00 0.00 0.00 0.00
05/23/19 4:19:26 AM 94 0.0 9.0 56 87 65.0 50.0 29.910 19.59 0.0 0 0.00 0.00 0.00 0.00
05/23/19 4:20:20 AM 94 0.0 9.0 56 87 65.0 49.9 29.911 19.59 0.0 0 0.00 0.00 0.00 0.00
05/23/19 4:21:32 AM 94 0.0 9.0 56 87 65.0 50.0 29.912 19.59 0.0 0 0.00 0.00 0.00 0.00
05/23/19 4:22:17 AM 94 0.0 9.0 56 87 65.0 49.9 29.912 19.59 0.0 0 0.00 0.00 0.00 0.00
05/23/19 4:23:29 AM 94 2.0 9.0 56 87 65.0 50.0 29.911 19.59 0.0 0 0.00 0.00 0.00 0.00
05/23/19 4:24:20 AM 93 2.0 9.0 56 87 65.0 50.0 29.911 19.59 0.0 0 0.00 0.00 0.00 0.00
05/23/19 4:25:35 AM 46 4.0 9.0 56 87 65.0 50.0 29.914 19.59 0.0 0 0.00 0.00 0.00 0.00
05/23/19 4:26:26 AM 47 4.0 9.0 56 87 65.0 50.0 29.914 19.59 0.0 0 0.00 0.00 0.00 0.00
05/23/19 4:27:35 AM 76 4.0 9.0 56 87 65.0 49.9 29.908 19.59 0.0 0 0.00 0.00 0.00 0.00
05/23/19 4:28:26 AM 76 4.0 9.0 56 87 65.0 49.9 29.908 19.59 0.0 0 0.00 0.00 0.00 0.00
05/23/19 4:29:17 AM 75 4.0 9.0 56 87 65.1 50.0 29.909 19.59 0.0 0 0.00 0.00 0.00 0.00
05/23/19 4:30:29 AM 73 5.0 9.0 56 86 65.0 50.0 29.912 19.59 0.0 0 0.00 0.00 0.00 0.00
05/23/19 4:31:23 AM 74 3.0 9.0 56 86 65.0 50.0 29.912 19.59 0.0 0 0.00 0.00 0.00 0.00
05/23/19 4:32:33 AM 71 4.0 9.0 56 86 65.0 50.1 29.909 19.59 0.0 0 0.00 0.00 0.00 0.00
05/23/19 4:33:24 AM 71 5.0 9.0 56 86 65.0 50.1 29.909 19.59 0.0 0 0.00 0.00 0.00 0.00
05/23/19 4:34:17 AM 71 3.0 9.0 56 86 65.0 50.1 29.908 19.59 0.0 0 0.00 0.00 0.00 0.00
05/23/19 4:35:30 AM 63 5.0 9.0 56 86 65.0 50.2 29.909 19.59 0.0 0 0.00 0.00 0.00 0.00
05/23/19 4:36:23 AM 71 4.0 9.0 56 86 65.0 50.2 29.909 19.59 0.0 0 0.00 0.00 0.00 0.00
05/23/19 4:37:36 AM 63 4.0 9.0 56 86 65.0 50.2 29.912 19.59 0.0 0 0.00 0.00 0.00 0.00
05/23/19 4:38:24 AM 74 5.0 9.0 56 86 65.0 50.3 29.912 19.59 0.0 0 0.00 0.00 0.00 0.00
05/23/19 4:39:36 AM 63 2.0 9.0 56 86 65.1 50.3 29.911 19.59 0.0 0 0.00 0.00 0.00 0.00
05/23/19 4:40:30 AM 67 4.0 9.0 56 86 65.1 50.3 29.912 19.59 0.0 0 0.00 0.00 0.00 0.00
05/23/19 4:41:17 AM 67 2.0 9.0 56 86 65.1 50.3 29.912 19.59 0.0 0 0.00 0.00 0.00 0.00
05/23/19 4:42:33 AM 73 2.0 9.0 56 86 65.0 50.3 29.912 19.59 0.0 0 0.00 0.00 0.00 0.00
05/23/19 4:43:24 AM 74 1.0 9.0 56 86 65.0 50.3 29.912 19.59 0.0 0 0.00 0.00 0.00 0.00
05/23/19 4:44:36 AM 73 1.0 9.0 56 86 65.1 50.4 29.913 19.59 0.0 0 0.00 0.00 0.00 0.00
05/23/19 4:45:30 AM 73 0.0 9.0 56 87 65.1 50.4 29.913 19.59 0.0 0 0.00 0.00 0.00 0.00
05/23/19 4:46:18 AM 73 1.0 9.0 56 87 65.1 50.4 29.913 19.59 0.0 0 0.00 0.00 0.00 0.00
05/23/19 4:47:30 AM 73 1.0 9.0 56 87 65.1 50.4 29.914 19.59 0.0 0 0.00 0.00 0.00 0.00
05/23/19 4:48:24 AM 73 1.0 9.0 56 87 65.1 50.5 29.914 19.59 0.0 0 0.00 0.00 0.00 0.00
05/23/19 4:49:30 AM 73 1.0 9.0 56 87 65.0 50.4 29.918 19.59 0.0 0 0.00 0.00 0.00 0.00
05/23/19 4:50:21 AM 73 1.0 9.0 56 87 65.0 50.5 29.918 19.59 0.0 0 0.00 0.00 0.00 0.00
05/23/19 4:51:33 AM 73 0.0 9.0 56 87 65.1 50.5 29.917 19.59 0.0 0 0.00 0.00 0.00 0.00
05/23/19 4:52:25 AM 73 1.0 9.0 56 87 65.1 50.5 29.917 19.59 0.0 0 0.00 0.00 0.00 0.00
05/23/19 4:53:16 AM 72 2.0 9.0 56 87 65.1 50.5 29.914 19.59 0.0 0 0.00 0.00 0.00 0.00
05/23/19 4:54:22 AM 72 1.0 9.0 56 87 65.0 50.5 29.914 19.59 0.0 0 0.00 0.00 0.00 0.00
05/23/19 4:55:37 AM 72 2.0 9.0 56 87 65.0 50.4 29.915 19.59 0.0 0 0.00 0.00 0.00 0.00
05/23/19 4:56:28 AM 72 2.0 9.0 56 87 65.1 50.4 29.914 19.59 0.0 0 0.00 0.00 0.00 0.00
05/23/19 4:57:19 AM 72 2.0 9.0 56 87 65.1 50.4 29.914 19.59 0.0 0 0.00 0.00 0.00 0.00
05/23/19 4:58:32 AM 72 3.0 9.0 56 87 65.0 50.4 29.914 19.59 0.0 0 0.00 0.00 0.00 0.00
05/23/19 4:59:19 AM 72 3.0 9.0 56 87 65.0 50.4 29.914 19.59 0.0 0 0.00 0.00 0.00 0.00
05/23/19 5:00:32 AM 71 3.0 9.0 56 87 65.1 50.4 29.915 19.59 0.0 0 0.00 0.00 0.00 0.00
05/23/19 5:01:23 AM 71 2.0 9.0 56 87 65.1 50.4 29.915 19.59 0.0 0 0.00 0.00 0.00 0.00
05/23/19 5:02:32 AM 71 1.0 9.0 56 87 65.1 50.4 29.915 19.59 0.0 0 0.00 0.00 0.00 0.00
05/23/19 5:03:23 AM 71 1.0 9.0 56 87 65.1 50.4 29.915 19.59 0.0 0 0.00 0.00 0.00 0.00
05/23/19 5:04:32 AM 71 2.0 9.0 56 87 65.1 50.4 29.913 19.59 0.0 0 0.00 0.00 0.00 0.00
05/23/19 5:05:26 AM 71 2.0 9.0 56 87 65.1 50.4 29.913 19.59 0.0 0 0.00 0.00 0.00 0.00
05/23/19 5:06:17 AM 71 2.0 9.0 56 87 65.1 50.4 29.911 19.59 0.0 0 0.00 0.00 0.00 0.00
05/23/19 5:07:29 AM 102 2.0 9.0 56 87 65.1 50.4 29.910 19.59 0.0 0 0.00 0.00 0.00 0.00
05/23/19 5:08:23 AM 102 2.0 9.0 56 87 65.1 50.4 29.910 19.59 0.0 0 0.00 0.00 0.00 0.00
05/23/19 5:09:35 AM 102 2.0 9.0 56 87 65.1 50.4 29.909 19.59 0.0 0 0.00 0.00 0.00 0.00
05/23/19 5:10:23 AM 102 2.0 9.0 56 87 65.1 50.4 29.909 19.59 0.0 0 0.00 0.00 0.00 0.00
05/23/19 5:11:17 AM 102 1.0 9.0 56 87 65.1 50.4 29.910 19.59 0.0 0 0.00 0.00 0.00 0.00
05/23/19 5:12:30 AM 102 1.0 9.0 56 87 65.1 50.4 29.915 19.59 0.0 0 0.00 0.00 0.00 0.00
05/23/19 5:13:24 AM 102 0.0 9.0 56 87 65.1 50.4 29.915 19.59 0.0 0 0.00 0.00 0.00 0.00
05/23/19 5:14:36 AM 102 0.0 9.0 56 87 65.1 50.4 29.917 19.59 0.0 0 0.00 0.00 0.00 0.00
05/23/19 5:15:24 AM 102 0.0 9.0 56 87 65.1 50.4 29.917 19.59 0.0 0 0.00 0.00 0.00 0.00
05/23/19 5:16:36 AM 102 0.0 9.0 56 87 65.1 50.4 29.918 19.59 0.0 0 0.00 0.00 0.00 0.00
05/23/19 5:17:30 AM 102 0.0 9.0 56 87 65.1 50.4 29.921 19.59 0.0 0 0.00 0.00 0.00 0.00
05/23/19 5:18:21 AM 102 0.0 9.0 56 87 65.1 50.4 29.921 19.59 0.0 0 0.00 0.00 0.00 0.00
05/23/19 5:19:33 AM 102 0.0 9.0 56 87 65.0 50.5 29.918 19.59 0.0 0 0.00 0.00 0.00 0.00
05/23/19 5:20:24 AM 102 0.0 9.0 56 87 65.0 50.4 29.918 19.59 0.0 0 0.00 0.00 0.00 0.00
05/23/19 5:21:33 AM 102 0.0 9.0 56 87 65.1 50.5 29.921 19.59 0.0 0 0.00 0.00 0.00 0.00
05/23/19 5:22:24 AM 102 0.0 9.0 56 87 65.1 50.4 29.921 19.59 0.0 0 0.00 0.00 0.00 0.00
05/23/19 5:23:36 AM 102 0.0 9.0 56 87 65.1 50.4 29.925 19.59 0.0 0 0.00 0.00 0.00 0.00
05/23/19 5:24:27 AM 102 0.0 9.0 56 87 65.1 50.4 29.923 19.59 0.0 0 0.00 0.00 0.00 0.00
05/23/19 5:25:21 AM 102 0.0 9.0 56 87 65.1 50.5 29.923 19.59 0.0 0 0.00 0.00 0.00 0.00
05/23/19 5:26:31 AM 102 0.0 9.0 56 87 65.1 50.5 29.923 19.59 0.0 0 0.00 0.00 0.00 0.00
05/23/19 5:27:22 AM 102 0.0 9.0 56 87 65.1 50.4 29.923 19.59 0.0 0 0.00 0.00 0.00 0.00
05/23/19 5:28:34 AM 102 0.0 9.0 56 87 65.1 50.5 29.924 19.59 0.0 0 0.00 0.00 0.00 0.00
05/23/19 5:29:25 AM 102 0.0 9.0 56 87 65.1 50.5 29.924 19.59 0.0 0 0.00 0.00 0.00 0.00
05/23/19 5:30:34 AM 102 0.0 9.0 56 87 65.1 50.5 29.923 19.59 0.0 0 0.00 0.00 0.00 0.00
05/23/19 5:31:22 AM 102 0.0 9.0 56 87 65.1 50.5 29.923 19.59 0.0 0 0.00 0.00 0.00 0.00
05/23/19 5:32:38 AM 102 0.0 9.0 56 87 65.1 50.5 29.924 19.59 0.0 0 0.00 0.00 0.00 0.00
05/23/19 5:33:26 AM 102 0.0 9.0 56 87 65.1 50.5 29.924 19.59 0.0 0 0.00 0.00 0.00 0.00
05/23/19 5:34:20 AM 102 0.0 9.0 56 87 65.1 50.5 29.926 19.59 0.0 0 0.00 0.00 0.00 0.00
05/23/19 5:35:32 AM 102 0.0 9.0 56 87 65.0 50.5 29.924 19.59 0.0 0 0.00 0.00 0.00 0.00
05/23/19 5:36:23 AM 102 0.0 9.0 56 87 65.0 50.5 29.924 19.59 0.0 0 0.00 0.00 0.00 0.00
05/23/19 5:37:32 AM 102 0.0 9.0 56 88 65.0 50.5 29.923 19.59 0.0 0 0.00 0.00 0.00 0.00
05/23/19 5:38:23 AM 102 0.0 9.0 56 88 65.0 50.5 29.923 19.59 0.0 0 0.00 0.00 0.00 0.00
05/23/19 5:39:36 AM 102 0.0 9.0 56 88 64.9 50.5 29.923 19.59 0.0 0 0.00 0.00 0.00 0.00
05/23/19 5:40:30 AM 102 0.0 9.0 56 88 64.8 50.5 29.924 19.59 0.0 0 0.00 0.00 0.00 0.00
05/23/19 5:41:21 AM 102 0.0 9.0 56 88 64.8 50.5 29.924 19.59 0.0 0 0.00 0.00 0.00 0.00
05/23/19 5:42:30 AM 102 0.0 9.0 56 88 64.6 50.5 29.922 19.59 0.0 0 0.00 0.00 0.00 0.00
05/23/19 5:43:21 AM 102 0.0 9.0 56 88 64.6 50.5 29.922 19.59 0.0 0 0.00 0.00 0.00 0.00
05/23/19 5:44:36 AM 102 0.0 9.0 56 88 64.5 50.5 29.921 19.59 0.0 0 0.00 0.00 0.00 0.00
05/23/19 5:45:27 AM 102 0.0 9.0 56 88 64.5 50.5 29.921 19.59 0.0 0 0.00 0.00 0.00 0.00
05/23/19 5:46:18 AM 102 0.0 9.0 56 88 64.4 50.5 29.922 19.59 0.0 0 0.00 0.00 0.00 0.00
05/23/19 5:47:28 AM 101 0.0 9.0 56 88 64.3 50.5 29.922 19.59 0.0 0 0.00 0.00 0.00 0.00
05/23/19 5:48:19 AM 101 0.0 9.0 56 88 64.3 50.5 29.922 19.59 0.0 0 0.00 0.00 0.00 0.00
05/23/19 5:49:31 AM 101 0.0 9.0 56 88 64.1 50.5 29.922 19.59 0.0 0 0.00 0.00 0.00 0.00
05/23/19 5:50:25 AM 101 0.0 9.0 56 88 64.1 50.5 29.922 19.59 0.0 0 0.00 0.00 0.00 0.00
05/23/19 5:51:16 AM 101 0.0 9.0 56 88 64.1 50.5 29.921 19.59 0.0 0 0.00 0.00 0.00 0.00
05/23/19 5:52:28 AM 101 0.0 9.0 56 88 63.9 50.5 29.922 19.59 0.0 0 0.00 0.00 0.00 0.00
05/23/19 5:53:16 AM 101 0.0 9.0 56 88 63.9 50.4 29.922 19.59 0.0 0 0.00 0.00 0.00 0.00
05/23/19 5:54:29 AM 101 0.0 9.0 56 88 63.8 50.4 29.923 19.59 0.0 0 0.00 0.00 0.00 0.00
05/23/19 5:55:20 AM 101 0.0 9.0 56 88 63.8 50.4 29.923 19.59 0.0 0 0.00 0.00 0.00 0.00
05/23/19 5:56:32 AM 101 0.0 9.0 56 88 63.8 50.4 29.925 19.59 0.0 0 0.00 0.00 0.00 0.00
05/23/19 5:57:24 AM 101 0.0 9.0 56 88 63.8 50.4 29.925 19.59 0.0 0 0.00 0.00 0.00 0.00
05/23/19 5:58:30 AM 100 0.0 9.0 57 88 63.7 50.4 29.924 19.59 0.0 0 0.00 0.00 0.00 0.00
05/23/19 5:59:24 AM 89 1.0 9.0 57 88 63.7 50.4 29.924 19.59 0.0 0 0.00 0.00 0.00 0.00
05/23/19 6:00:33 AM 79 4.0 9.0 57 88 63.7 50.4 29.926 19.59 0.0 0 0.00 0.00 0.00 0.00
05/23/19 6:01:24 AM 78 3.0 9.0 57 88 63.7 50.3 29.926 19.59 0.0 0 0.00 0.00 0.00 0.00
05/23/19 6:02:15 AM 78 2.0 9.0 57 88 63.7 50.3 29.926 19.59 0.0 0 0.00 0.00 0.00 0.00
05/23/19 6:03:24 AM 78 3.0 9.0 57 88 63.7 50.3 29.927 19.59 0.0 0 0.00 0.00 0.00 0.00
05/23/19 6:04:37 AM 75 3.0 9.0 57 88 63.6 50.3 29.927 19.59 0.0 0 0.00 0.00 0.00 0.00
05/23/19 6:05:34 AM 75 2.0 9.0 57 88 63.5 50.3 29.929 19.59 0.0 0 0.00 0.00 0.00 0.00
05/23/19 6:06:25 AM 74 3.0 9.0 57 88 63.5 50.3 29.929 19.59 0.0 0 0.00 0.00 0.00 0.00
05/23/19 6:07:37 AM 73 3.0 9.0 57 88 63.3 50.3 29.929 19.59 0.0 0 0.00 0.00 0.00 0.00
05/23/19 6:08:28 AM 71 3.0 9.0 57 88 63.2 50.4 29.929 19.59 0.0 0 0.00 0.00 0.00 0.00
05/23/19 6:09:16 AM 71 2.0 9.0 57 88 63.2 50.3 29.929 19.59 0.0 0 0.00 0.00 0.00 0.00
05/23/19 6:10:28 AM 70 3.0 9.0 57 88 62.9 50.4 29.928 19.59 0.0 0 0.00 0.00 0.00 0.00
05/23/19 6:11:23 AM 71 4.0 9.0 57 88 62.9 50.4 29.928 19.59 0.0 0 0.00 0.00 0.00 0.00
05/23/19 6:12:35 AM 71 3.0 9.0 57 88 62.8 50.4 29.927 19.59 0.0 0 0.00 0.00 0.00 0.00
05/23/19 6:13:26 AM 71 3.0 9.0 57 88 62.8 50.4 29.927 19.59 0.0 0 0.00 0.00 0.00 0.00
05/23/19 6:14:35 AM 71 3.0 9.0 57 88 62.6 50.4 29.927 19.59 0.0 0 0.00 0.00 0.00 0.00
05/23/19 6:15:29 AM 71 2.0 9.0 57 88 62.5 50.4 29.928 19.59 0.0 0 0.00 0.00 0.00 0.00
05/23/19 6:16:21 AM 71 3.0 9.0 57 88 62.5 50.5 29.928 19.59 0.0 0 0.00 0.00 0.00 0.00
05/23/19 6:17:33 AM 71 3.0 9.0 57 88 62.4 50.5 29.924 19.59 0.0 0 0.00 0.00 0.00 0.00
05/23/19 6:18:24 AM 71 2.0 9.0 57 88 62.4 50.5 29.924 19.59 0.0 0 0.00 0.00 0.00 0.00
05/23/19 6:19:18 AM 71 3.0 9.0 57 88 62.3 50.5 29.923 19.59 0.0 0 0.00 0.00 0.00 0.00
05/23/19 6:20:27 AM 71 3.0 9.0 58 88 62.2 50.5 29.924 19.59 0.0 0 0.00 0.00 0.00 0.00
05/23/19 6:21:18 AM 71 3.0 9.0 58 88 62.2 50.5 29.924 19.59 0.0 0 0.00 0.00 0.00 0.00
05/23/19 6:22:34 AM 71 2.0 9.0 58 88 62.2 50.6 29.921 19.59 0.0 0 0.00 0.00 0.00 0.00
05/23/19 6:23:25 AM 71 2.0 9.0 58 88 62.2 50.6 29.921 19.59 0.0 0 0.00 0.00 0.00 0.00
05/23/19 6:24:37 AM 71 2.0 9.0 58 88 62.1 50.6 29.924 19.59 0.0 0 0.00 0.00 0.00 0.00
05/23/19 6:25:25 AM 71 1.0 9.0 58 88 62.1 50.6 29.924 19.59 0.0 0 0.00 0.00 0.00 0.00
05/23/19 6:26:35 AM 71 2.0 9.0 58 88 62.1 50.6 29.924 19.59 0.0 0 0.00 0.00 0.00 0.00
05/23/19 6:27:26 AM 71 2.0 9.0 58 88 62.1 50.7 29.924 19.59 0.0 0 0.00 0.00 0.00 0.00
05/23/19 6:28:20 AM 71 2.0 9.0 58 88 62.1 50.7 29.925 19.59 0.0 0 0.00 0.00 0.00 0.00
05/23/19 6:29:29 AM 71 2.0 9.0 58 88 62.3 50.7 29.925 19.59 0.0 0 0.00 0.00 0.00 0.00
05/23/19 6:30:17 AM 71 3.0 9.0 58 88 62.3 50.7 29.925 19.59 0.0 0 0.00 0.00 0.00 0.00
05/23/19 6:31:29 AM 71 3.0 9.0 58 88 62.3 50.7 29.924 19.59 0.0 0 0.00 0.00 0.00 0.00
05/23/19 6:32:21 AM 71 3.0 9.0 58 87 62.3 50.7 29.924 19.59 0.0 0 0.00 0.00 0.00 0.00

University Police wind advisory reference

For campus closure information please call the campus Emergency Hotline at (909) 537-5999

© All rights reserved. Unauthorized duplication or distribution is prohibited

Never base important decisions on this or any weather information obtained from the Internet

California State University, San Bernardino
5500 University Parkway, San Bernardino, CA. 92407
Phone: (909) 537-5108, Email: Weather Webmaster
Last Updated: